[[{"header":{"parameterUnit":"m.s-1","parameterCategory":1,"la1":30.2991,"la2":30.254,"lo1":-89.0895,"lo2":-89.0444,"dy":0.0017,"dx":0.0017,"nx":28,"ny":28,"refTime":"2024-04-11T03:00:00:Z","depth":0,"parameterNumber":2,"parameterNumberName":"U-component_of_WINDS"},"data":[0,0,0,0,0,0,0,0,0,0,0,0,0,0,0,0,0,0,0,0,0,0,0,0,0,0,0,0,0,0,0,0,0,0,0,0,0,0,0,0,0,0,0,0,0,0,0,0,0,0,0,0,0,0,0,0,0,0,6.3504,6.3505,0,6.3623,6.3625,6.3626,6.36,6.3598,6.3596,6.3594,6.3716,6.3721,6.3727,0,0,0,0,0,0,0,0,0,0,0,0,0,6.3254,6.3259,6.3503,6.3505,6.3506,6.3623,6.3625,6.3626,6.3601,6.3598,6.3595,6.3593,6.3714,6.3721,6.3727,0,0,0,0,0,0,0,0,0,0,0,0,0,6.3367,6.3261,6.3503,6.3508,6.3509,6.3623,6.3625,6.3627,6.3601,6.3598,6.3595,6.3592,6.3712,6.372,6.3728,6.3844,0,0,6.3752,6.3756,0,0,0,0,0,0,0,0,6.3361,6.3376,6.3506,6.3508,6.351,6.3594,6.3582,6.37,6.3602,6.3566,6.3594,6.359,6.3678,6.3689,6.3718,6.385,6.3855,6.3753,6.3758,6.3761,6.3764,0,0,0,0,0,0,0,6.3353,6.3371,6.3551,6.3508,6.351,6.3504,6.3517,6.3604,6.3639,6.3569,6.3568,6.3582,6.3678,6.3711,6.3721,6.3857,6.3753,6.376,6.3765,6.3768,6.4093,6.4097,0,0,0,0,0,0,6.3343,6.3365,6.3547,6.3554,6.3426,6.3512,6.3525,6.357,6.3638,6.3646,6.3585,6.3581,6.3699,6.3712,6.3725,6.3868,6.3761,6.3769,6.3773,6.409,6.4094,6.4098,0,0,0,0,0,0,6.3338,6.336,6.3542,6.3459,6.3482,6.3519,6.357,6.3574,6.3606,6.365,6.3657,6.3611,6.3697,6.3714,6.3816,6.3872,6.3772,6.378,6.4085,6.4091,6.4096,6.4153,0,0,0,0,0,0,6.3331,6.3358,6.3402,6.346,6.3487,6.363,6.3573,6.3579,6.362,6.3616,6.3677,6.3684,6.3695,6.3804,6.3824,6.3881,6.3786,6.408,6.4088,6.4095,6.4146,6.416,6.4172,0,0,0,0,0,6.3322,6.3412,6.3404,6.3426,6.3542,6.3633,6.3648,6.366,6.3625,6.367,6.3699,6.3682,6.3863,6.3814,6.3836,6.3897,6.4077,6.4086,6.4094,6.4141,6.4157,6.4172,0,0,0,0,0,0,6.3358,6.342,6.3412,6.3523,6.3574,6.3629,6.3685,6.3677,6.3738,6.3731,6.3743,6.3757,6.3861,6.3889,6.3834,6.4015,6.3965,6.3978,6.3993,6.4009,6.4021,6.4013,6.3793,0,0,0,0,0,6.3379,6.3448,6.3498,6.3592,6.3618,6.3648,6.3688,6.3693,6.3745,6.3766,6.3802,6.3853,6.3922,6.3967,6.4032,6.4151,6.4165,6.4204,6.4216,6.4226,6.4238,6.4305,6.4324,6.4127,6.4127,6.4127,0,0,6.3423,6.3465,6.3508,6.36,6.364,6.3712,6.3665,6.3742,6.3796,6.3777,6.3876,6.3905,6.3963,6.4075,6.4125,6.4101,6.4296,6.4238,6.4245,6.4251,6.4316,6.4335,6.4351,6.4133,6.4132,6.4131,0,0,6.354,6.3578,6.3662,6.3703,6.3764,6.3784,6.3804,6.3862,6.3881,6.398,6.3968,6.4033,6.415,6.4193,6.4231,6.4368,6.4356,6.4389,6.4456,6.4521,6.4537,6.4551,6.4601,6.4619,6.44,6.4401,6.4401,0,6.3587,6.3694,6.3706,6.3785,6.3827,6.3815,6.3901,6.394,6.4019,6.4049,6.4021,6.4171,6.4209,6.4331,6.4365,6.4395,6.442,6.4382,6.4533,6.4548,6.4561,6.4609,6.4628,6.4404,6.4404,6.4404,6.4403,0,6.375,6.3825,6.3885,6.3963,6.4012,6.4094,6.4119,6.4168,6.4169,6.4193,6.4296,6.4342,6.4418,6.4447,6.4449,6.4571,6.4555,6.453,6.448,6.4583,6.4629,6.4648,6.441,6.4408,6.4407,6.4406,0,0,6.3891,6.3977,6.3999,6.4036,6.4103,6.4162,6.4245,6.432,6.4362,6.4417,6.4488,6.459,6.4569,6.4611,6.4618,6.4675,6.4784,6.4644,6.4646,6.467,6.4924,6.4943,6.4964,6.4776,6.478,6.4783,6.492,0,6.4015,6.4161,6.4176,6.4306,6.4377,6.4368,6.4441,6.4491,6.4516,6.458,6.4607,6.468,6.4645,6.4671,6.4728,6.4759,6.4836,6.4749,6.4844,6.4847,6.483,6.4988,6.5007,6.5134,6.4938,6.4941,6.4943,0,6.4179,6.4241,6.438,6.4441,6.4471,6.4536,6.4607,6.4668,6.4726,6.474,6.479,6.479,6.4877,6.4824,6.4944,6.4885,6.4925,6.4947,6.4952,6.4962,6.4901,6.5003,6.5175,6.5194,6.4971,6.4969,6.4967,0,6.4271,6.4389,6.4488,6.4519,6.4592,6.4638,6.4671,6.4725,6.477,6.4833,6.4863,6.4935,6.4975,6.5031,6.5052,6.5011,6.5173,6.512,6.5188,6.5188,6.5222,6.522,6.5404,6.5247,6.5246,6.5246,6.5246,0,6.4408,6.4494,6.453,6.4591,6.4687,6.4704,6.4799,6.4829,6.4878,6.4946,6.4942,6.5006,6.5028,6.5096,6.5113,6.5212,6.523,6.5245,6.5248,6.5245,6.5244,6.5272,6.5264,6.5251,6.525,6.5249,6.5248,0,6.4526,6.4554,6.4661,6.4722,6.474,6.4808,6.4861,6.4921,6.4946,6.5032,6.5053,6.5092,6.5172,6.5198,6.5294,6.5306,6.5422,6.5417,6.5403,6.5403,6.547,6.5464,6.5679,6.5709,6.5531,6.5533,6.5534,0,6.4612,6.4678,6.4747,6.4793,6.4828,6.49,6.4947,6.4967,6.5016,6.5089,6.514,6.522,6.5284,6.5413,6.5451,6.5525,6.5523,6.5593,6.5534,6.553,6.5526,6.5522,6.553,6.5604,6.5606,6.5608,6.5609,0,6.4763,6.4775,6.4842,6.4916,6.4972,6.5031,6.5088,6.5125,6.5154,6.5209,6.5292,6.5342,6.5442,6.5522,6.5598,6.5633,6.5627,6.5628,6.5648,6.5646,6.5635,6.5644,6.5434,6.5622,6.5621,6.562,6.5619,6.5619,6.4869,6.4928,6.4987,6.5064,6.5109,6.5163,6.5223,6.5256,6.5325,6.5408,6.5416,6.5505,6.5564,6.5667,6.5705,6.5776,6.5757,6.5785,6.5792,6.5799,6.5805,6.5624,6.579,6.579,6.579,6.5789,6.5789,0,6.5021,6.5059,6.513,6.521,6.5271,6.526,6.5323,6.5375,6.5454,6.551,6.5574,6.567,6.5749,6.5793,6.5872,6.5921,6.592,6.5941,6.5938,6.5946,6.5818,6.5793,6.594,6.594,6.594,6.594,6.594,6.594,6.5108,6.5208,6.5227,6.5351,6.5388,6.5476,6.5513,6.5564,6.5609,6.5716,6.5782,6.5811,6.5863,6.5946,6.6018,6.6029,6.6059,6.6082,6.6092,6.597,6.5955,6.594,6.5917,6.6088,6.6088,6.6214,6.6216,6.6216]},{"header":{"parameterUnit":"m.s-1","parameterCategory":1,"la1":30.2991,"la2":30.254,"lo1":-89.0895,"lo2":-89.0444,"dy":0.0017,"dx":0.0017,"nx":28,"ny":28,"refTime":"2024-04-11T03:00:00:Z","depth":0,"parameterNumber":3,"parameterNumberName":"V-component_of_WINDS"},"data":[0,0,0,0,0,0,0,0,0,0,0,0,0,0,0,0,0,0,0,0,0,0,0,0,0,0,0,0,0,0,0,0,0,0,0,0,0,0,0,0,0,0,0,0,0,0,0,0,0,0,0,0,0,0,0,0,0,0,-5.5127,-5.5127,0,-5.5126,-5.5126,-5.5126,-5.5084,-5.5083,-5.5082,-5.5081,-5.5079,-5.508,-5.5081,0,0,0,0,0,0,0,0,0,0,0,0,0,-5.5094,-5.5095,-5.5127,-5.5127,-5.5127,-5.5126,-5.5126,-5.5126,-5.5084,-5.5083,-5.5082,-5.5081,-5.5078,-5.5079,-5.5081,0,0,0,0,0,0,0,0,0,0,0,0,0,-5.5102,-5.5095,-5.5127,-5.5106,-5.5105,-5.5126,-5.5126,-5.5126,-5.5085,-5.5083,-5.5082,-5.508,-5.5078,-5.5079,-5.5081,-5.5122,0,0,-5.5085,-5.5086,0,0,0,0,0,0,0,0,-5.5102,-5.5104,-5.511,-5.5108,-5.5106,-5.5104,-5.5114,-5.5125,-5.5085,-5.5092,-5.5081,-5.5079,-5.5088,-5.5089,-5.5092,-5.5122,-5.5122,-5.5085,-5.5086,-5.5087,-5.5087,0,0,0,0,0,0,0,-5.5101,-5.5103,-5.5127,-5.511,-5.5107,-5.5097,-5.5097,-5.5116,-5.5099,-5.5091,-5.5088,-5.5089,-5.5087,-5.5091,-5.5092,-5.5122,-5.5085,-5.5086,-5.5087,-5.5088,-5.5187,-5.5189,0,0,0,0,0,0,-5.5104,-5.5103,-5.5127,-5.5127,-5.51,-5.5099,-5.5099,-5.5106,-5.5099,-5.5096,-5.509,-5.5087,-5.5089,-5.509,-5.5091,-5.514,-5.5087,-5.5088,-5.5089,-5.5186,-5.5188,-5.519,0,0,0,0,0,0,-5.5103,-5.5106,-5.5127,-5.5114,-5.5116,-5.5102,-5.511,-5.5107,-5.5111,-5.5098,-5.5095,-5.5097,-5.5088,-5.5089,-5.5115,-5.5139,-5.5089,-5.509,-5.5184,-5.5186,-5.5189,-5.5237,0,0,0,0,0,0,-5.5102,-5.5106,-5.5121,-5.5115,-5.5117,-5.5151,-5.5112,-5.5108,-5.5113,-5.5109,-5.5104,-5.5101,-5.5087,-5.5113,-5.5117,-5.514,-5.5091,-5.5181,-5.5185,-5.5188,-5.5233,-5.5241,-5.5248,0,0,0,0,0,-5.5101,-5.5134,-5.5122,-5.5125,-5.5136,-5.5152,-5.5153,-5.5136,-5.5115,-5.5131,-5.5123,-5.5101,-5.5137,-5.5116,-5.512,-5.5144,-5.518,-5.5184,-5.5188,-5.523,-5.524,-5.5248,0,0,0,0,0,0,-5.5143,-5.5133,-5.512,-5.5151,-5.5153,-5.5145,-5.5163,-5.5147,-5.5154,-5.5149,-5.5127,-5.5127,-5.5156,-5.5153,-5.513,-5.5185,-5.5154,-5.5159,-5.5185,-5.5194,-5.5202,-5.5201,-5.5092,0,0,0,0,0,-5.5156,-5.517,-5.5161,-5.519,-5.5192,-5.5178,-5.5184,-5.5171,-5.5172,-5.5172,-5.5166,-5.5168,-5.5179,-5.5187,-5.5196,-5.5233,-5.5232,-5.5252,-5.5259,-5.5265,-5.5269,-5.529,-5.5299,-5.5203,-5.5203,-5.5203,0,0,-5.5182,-5.5179,-5.5189,-5.5198,-5.5198,-5.5214,-5.5178,-5.5196,-5.5207,-5.5175,-5.5199,-5.5195,-5.5195,-5.5227,-5.5241,-5.5225,-5.5296,-5.5271,-5.5275,-5.5276,-5.5295,-5.5304,-5.5312,-5.5206,-5.5205,-5.5205,0,0,-5.5239,-5.5238,-5.5262,-5.5263,-5.5264,-5.5255,-5.5261,-5.5257,-5.5253,-5.5277,-5.5254,-5.5267,-5.5287,-5.5288,-5.5292,-5.5353,-5.5333,-5.5356,-5.5394,-5.5414,-5.5422,-5.5428,-5.545,-5.5458,-5.5361,-5.5361,-5.5361,0,-5.5271,-5.5294,-5.5277,-5.5297,-5.5302,-5.5275,-5.53,-5.5302,-5.5305,-5.531,-5.5293,-5.5319,-5.5317,-5.5349,-5.5364,-5.5368,-5.5374,-5.5356,-5.5422,-5.5428,-5.5434,-5.5455,-5.5463,-5.5364,-5.5363,-5.5363,-5.5363,0,-5.5334,-5.5351,-5.5371,-5.5376,-5.5384,-5.5406,-5.5393,-5.5403,-5.5391,-5.5384,-5.541,-5.5407,-5.5416,-5.5424,-5.5411,-5.5455,-5.5445,-5.5426,-5.5394,-5.5446,-5.5465,-5.5473,-5.5368,-5.5367,-5.5366,-5.5365,0,0,-5.5414,-5.5412,-5.5419,-5.5422,-5.5423,-5.5435,-5.5457,-5.5467,-5.5476,-5.5481,-5.5499,-5.5518,-5.55,-5.5504,-5.5492,-5.551,-5.5559,-5.5488,-5.5488,-5.5501,-5.5608,-5.5622,-5.5632,-5.5547,-5.5548,-5.555,-5.5608,0,-5.5468,-5.5505,-5.5492,-5.553,-5.5546,-5.5522,-5.5542,-5.5544,-5.5539,-5.5552,-5.5546,-5.556,-5.5536,-5.5538,-5.5555,-5.5549,-5.558,-5.5545,-5.5563,-5.5564,-5.5563,-5.5641,-5.5656,-5.5711,-5.5615,-5.5617,-5.5617,0,-5.5536,-5.5544,-5.5584,-5.5584,-5.559,-5.5608,-5.5617,-5.5629,-5.5633,-5.5628,-5.5634,-5.5619,-5.5641,-5.5612,-5.5642,-5.5619,-5.5626,-5.5625,-5.5626,-5.5626,-5.5593,-5.5643,-5.5728,-5.5737,-5.5629,-5.5628,-5.5627,0,-5.559,-5.5611,-5.5638,-5.5642,-5.5642,-5.5655,-5.5656,-5.5658,-5.5665,-5.5674,-5.5679,-5.569,-5.5695,-5.5704,-5.5693,-5.5672,-5.5725,-5.5694,-5.5722,-5.5722,-5.5732,-5.5732,-5.5819,-5.5739,-5.5739,-5.5739,-5.5738,0,-5.5651,-5.5676,-5.5663,-5.5679,-5.5708,-5.5694,-5.5722,-5.572,-5.5722,-5.5739,-5.5719,-5.5735,-5.5719,-5.5733,-5.5724,-5.5751,-5.5754,-5.5751,-5.5748,-5.5752,-5.5752,-5.5755,-5.5751,-5.5741,-5.574,-5.574,-5.5739,0,-5.5715,-5.5707,-5.5735,-5.5734,-5.5735,-5.5756,-5.5755,-5.577,-5.5765,-5.5786,-5.579,-5.5782,-5.5798,-5.5788,-5.5804,-5.5798,-5.5834,-5.5826,-5.5833,-5.583,-5.5858,-5.5855,-5.595,-5.5962,-5.5874,-5.5875,-5.5876,0,-5.5754,-5.5773,-5.5775,-5.5785,-5.5788,-5.5804,-5.5812,-5.5799,-5.5809,-5.5816,-5.5831,-5.5846,-5.5856,-5.5884,-5.5879,-5.5892,-5.5884,-5.5916,-5.5885,-5.5889,-5.5884,-5.5882,-5.5884,-5.5922,-5.5923,-5.5924,-5.5924,0,-5.5824,-5.582,-5.5833,-5.5846,-5.5857,-5.5866,-5.5873,-5.5883,-5.587,-5.5882,-5.5899,-5.5908,-5.5926,-5.5941,-5.5952,-5.5953,-5.5937,-5.5935,-5.5941,-5.5945,-5.5948,-5.5947,-5.5849,-5.5932,-5.5931,-5.593,-5.593,-5.593,-5.5877,-5.5893,-5.5898,-5.5914,-5.5919,-5.5927,-5.5942,-5.594,-5.5954,-5.5967,-5.596,-5.598,-5.5984,-5.5998,-5.6001,-5.6017,-5.6004,-5.6014,-5.6016,-5.6019,-5.6023,-5.5947,-5.6019,-5.6019,-5.6019,-5.6019,-5.6018,0,-5.5946,-5.5948,-5.5963,-5.5975,-5.5988,-5.5974,-5.5982,-5.5994,-5.6012,-5.6018,-5.603,-5.605,-5.6066,-5.6064,-5.6078,-5.6091,-5.6084,-5.6095,-5.6093,-5.6094,-5.6034,-5.6026,-5.61,-5.61,-5.61,-5.61,-5.61,-5.61,-5.5983,-5.6011,-5.6008,-5.6039,-5.6041,-5.6061,-5.6067,-5.6075,-5.608,-5.6104,-5.6117,-5.6116,-5.6119,-5.6134,-5.6147,-5.6146,-5.6152,-5.6166,-5.6162,-5.6106,-5.6098,-5.609,-5.6083,-5.6167,-5.6167,-5.6221,-5.6221,-5.6221]}]]